GFSCGP_925_rhum_021.txt.gz
RH
12 16 17 14 10 11 11 12 12 10 13 34 32 28 26 22 28 30 29 30 32 32 31 33 32 32 39 40 44 48 48 61 61 63 67 67 68 61 60 56 52 60 64 68
13 16 13 10 9 9 10 12 13 10 14 28 39 34 30 25 22 28 26 28 29 30 30 34 33 34 40 44 46 45 48 57 66 65 63 66 66 63 62 58 61 63 65 65
14 13 11 10 10 11 11 12 12 13 15 21 37 41 43 25 22 24 22 24 26 28 30 34 33 34 38 48 50 48 46 51 65 63 64 65 62 61 64 62 62 58 61 59
12 10 10 11 10 9 14 10 10 11 14 27 28 43 44 27 25 26 22 21 23 26 27 32 33 35 36 49 49 52 48 49 57 66 66 68 64 68 64 62 62 57 64 70
12 12 11 10 8 6 10 10 10 11 13 23 21 26 38 33 32 28 22 21 20 22 24 30 34 33 36 45 53 55 53 54 54 60 66 63 65 62 61 60 58 64 72 60
10 8 8 9 7 5 5 9 11 12 13 22 23 23 34 31 28 24 21 22 20 20 21 28 29 33 34 46 55 65 64 61 61 62 64 67 70 68 62 57 57 61 64 62
13 11 7 7 8 6 6 9 15 19 20 23 21 24 34 23 20 22 21 20 20 20 21 22 31 35 36 46 57 69 71 75 72 68 63 66 71 64 59 62 59 66 68 61
16 18 12 8 8 8 6 7 12 25 22 19 17 25 23 17 16 18 18 18 18 19 21 22 30 31 36 41 54 66 76 76 80 76 73 63 64 69 60 57 58 59 61 61
14 16 10 8 7 7 9 8 6 11 14 21 16 15 12 18 16 17 19 16 18 18 22 23 25 29 36 39 54 58 79 78 80 82 80 71 67 68 70 58 62 55 49 48
12 20 11 9 8 7 7 7 9 8 14 18 15 18 19 18 20 23 22 22 18 18 20 23 24 29 36 38 48 56 76 78 81 78 82 78 70 67 67 71 57 61 51 52
9 12 12 11 10 10 10 8 8 8 9 14 20 16 13 19 22 23 19 16 17 16 18 23 25 27 35 37 43 54 70 77 81 83 79 82 85 77 72 70 65 56 58 48
9 12 14 13 10 8 8 9 10 12 17 18 12 13 11 9 18 17 17 15 18 18 19 22 24 26 36 38 40 52 70 76 78 82 83 80 84 86 79 73 69 59 56 56
10 11 16 15 11 9 8 8 9 8 14 17 25 14 7 7 16 15 17 23 18 21 26 22 23 29 34 37 39 46 60 74 77 81 84 85 83 87 87 77 74 67 59 56
25 11 12 15 14 14 16 10 9 9 11 11 10 10 9 14 21 12 17 17 15 21 26 23 24 28 31 36 40 41 50 64 73 79 81 83 84 84 85 86 79 72 76 64
15 18 12 11 11 12 11 12 9 10 8 13 11 10 10 12 26 23 19 20 17 18 32 34 25 28 31 34 38 41 45 49 63 72 78 78 81 82 84 85 88 81 78 77
31 30 21 16 10 9 10 11 11 9 9 10 11 12 11 13 24 22 22 16 13 17 27 31 30 26 30 32 38 39 44 46 50 65 70 73 74 80 80 84 85 91 82 83
37 33 30 24 17 17 15 11 12 13 10 11 12 9 11 12 14 19 21 17 15 18 27 31 35 35 30 32 35 40 42 45 48 52 64 67 71 75 78 80 82 84 89 87
32 32 33 26 26 34 19 14 12 13 15 11 11 13 15 17 17 18 13 11 11 21 24 29 33 39 40 33 34 36 40 44 47 50 58 63 67 72 75 79 80 80 85 86
22 26 31 37 28 22 17 15 15 16 15 14 22 20 19 26 14 14 17 15 14 9 13 18 27 31 34 37 35 36 40 45 45 48 52 59 63 68 72 78 78 81 80 89
19 19 31 33 32 29 19 14 13 20 33 33 35 35 32 29 34 36 37 26 23 19 15 11 12 23 37 33 39 38 40 41 46 44 50 55 59 63 73 76 78 80 83 87
34 42 36 30 27 24 20 12 21 35 41 39 37 37 38 40 41 35 34 31 29 28 22 13 16 29 32 31 42 42 40 41 42 46 48 58 60 64 74 77 79 82 83 90
72 87 56 39 34 35 29 27 28 44 43 44 37 33 31 31 33 30 33 34 31 29 29 25 26 43 27 38 44 51 51 44 42 52 55 64 67 78 82 86 87 80 90 97
68 74 92 49 55 49 52 49 42 54 61 63 66 66 54 60 70 73 65 53 55 51 55 62 74 73 61 48 46 63 64 54 52 62 69 72 75 88 89 89 99 100 95 99
61 78 80 70 52 43 44 40 57 59 64 63 63 67 71 77 74 77 79 75 74 78 73 69 71 82 91 71 66 70 65 61 66 81 88 88 90 96 96 98 98 100 100 100
91 87 85 78 80 85 61 60 62 61 59 63 65 68 73 75 80 80 86 88 85 85 85 84 88 89 91 81 81 76 74 79 97 100 100 99 100 100 100 99 99 97 92 89
92 94 97 100 96 96 76 71 63 60 60 56 60 64 67 69 73 73 80 81 84 87 89 90 86 86 89 96 100 99 97 92 95 100 100 100 99 100 99 99 100 95 93 90

GFSCGP_925_rhum_024.txt.gz
RH
13 20 22 19 17 14 15 15 16 13 12 31 31 31 27 39 42 44 45 44 43 40 36 38 49 48 50 54 62 62 63 55 66 65 62 61 59 54 55 66 60 61 60 64
14 18 17 15 14 12 12 14 15 14 12 29 34 28 24 32 36 39 40 41 41 40 38 38 44 47 52 58 64 65 63 56 62 61 57 56 55 59 51 59 62 57 59 62
15 15 13 15 15 14 12 12 12 14 13 34 34 37 34 28 24 30 34 34 36 37 38 38 37 46 48 61 63 64 60 60 60 58 56 64 60 65 67 66 64 59 62 64
16 13 13 13 15 14 18 10 10 12 15 29 30 44 42 35 31 30 30 32 34 34 33 36 36 39 46 55 61 63 66 61 63 61 64 72 72 73 66 64 62 60 62 68
18 15 14 15 14 13 14 11 13 13 15 18 19 38 39 36 35 31 30 29 30 31 32 35 36 35 42 49 57 59 59 58 62 63 66 69 68 63 59 58 62 69 68 67
14 11 12 12 11 12 10 9 12 14 16 25 20 29 39 37 32 27 26 26 27 29 30 31 33 34 38 46 54 58 59 66 61 64 66 66 68 63 61 60 64 67 67 68
16 14 10 10 14 11 10 11 16 18 19 23 19 33 28 28 28 22 23 25 24 26 28 30 35 35 37 45 54 61 63 68 69 67 66 67 64 62 56 59 64 66 68 72
21 22 15 10 11 12 12 10 14 20 25 24 19 32 23 21 23 23 20 22 22 23 25 28 31 35 35 42 55 62 67 66 71 72 69 66 65 61 58 65 65 62 61 69
21 18 12 11 11 10 12 11 8 14 19 23 21 18 17 20 20 23 23 22 23 21 22 24 29 33 35 42 55 63 68 67 72 72 70 68 64 64 66 68 65 64 62 62
12 19 13 10 12 11 11 10 10 13 14 15 16 19 18 17 23 24 23 23 23 21 20 20 24 30 36 38 54 61 68 66 72 75 72 71 66 68 68 68 68 66 60 60
9 14 13 13 13 14 14 12 11 10 11 12 20 13 13 15 19 25 25 22 21 23 22 22 22 28 33 37 52 62 70 68 74 78 77 78 74 70 71 63 68 65 63 59
12 11 14 12 12 11 11 12 12 12 15 15 9 10 9 12 13 23 24 20 20 20 22 24 23 26 31 38 49 60 72 70 73 79 80 80 80 79 74 66 65 70 66 58
36 17 16 18 14 12 13 12 10 15 15 13 20 12 9 9 12 22 22 19 19 22 24 25 25 27 32 38 44 54 69 72 74 77 82 84 87 86 76 68 71 69 71 63
38 34 19 18 15 12 14 11 11 10 12 12 12 12 9 10 12 19 16 22 21 25 27 23 27 28 33 37 41 51 59 71 75 78 78 81 86 88 81 72 73 73 71 68
53 51 23 20 15 10 13 14 11 12 10 11 10 12 11 10 10 11 12 22 23 21 33 26 29 30 36 39 40 47 57 68 73 78 81 80 81 85 87 85 82 79 77 76
55 55 42 33 19 11 11 11 12 11 10 10 11 11 10 9 14 15 17 18 21 15 15 27 26 29 33 39 41 43 52 67 72 78 80 82 83 84 86 88 89 86 83 81
65 57 50 48 22 12 15 12 13 13 12 10 12 11 14 12 16 20 20 27 24 21 27 33 27 29 32 37 40 42 49 62 71 74 79 81 85 88 88 88 91 95 92 87
55 51 47 49 36 24 13 10 9 12 13 13 10 11 14 11 11 17 24 25 16 22 23 36 28 28 31 32 38 42 44 53 66 69 75 80 83 86 87 90 92 94 97 92
40 46 47 49 47 24 17 18 13 15 14 18 15 14 15 19 19 32 24 17 15 15 21 31 34 28 28 31 35 41 46 50 55 62 71 76 80 82 86 88 92 93 95 98
28 30 40 39 42 36 18 14 18 20 27 37 35 37 30 27 29 34 37 24 21 20 23 19 36 38 36 32 33 39 44 50 52 54 58 71 75 79 82 86 86 89 90 94
70 64 49 44 46 33 21 17 21 29 34 39 41 41 38 43 41 36 33 29 26 24 28 24 15 31 35 38 35 38 42 47 48 50 53 61 71 75 77 80 85 84 88 93
79 86 78 55 57 37 49 44 24 36 52 45 47 38 47 63 78 79 71 54 40 33 29 26 28 22 23 34 40 40 42 42 44 48 51 57 67 71 74 79 83 85 93 99
88 78 84 78 89 66 75 81 75 70 79 75 81 74 72 82 87 86 91 90 91 90 89 84 39 25 21 38 43 44 41 40 43 47 52 62 66 67 74 84 92 100 100 100
79 83 82 77 84 87 87 78 78 75 79 79 79 80 79 87 88 94 93 95 96 96 97 96 96 88 85 58 45 43 43 47 52 60 61 76 77 83 91 92 98 99 100 100
85 78 89 86 86 89 79 79 85 77 68 71 71 76 81 85 92 90 92 95 96 96 96 95 98 99 99 96 71 63 74 60 74 92 97 98 100 98 100 100 100 100 100 99
94 95 85 98 95 93 90 74 68 66 65 66 66 72 77 81 87 84 88 89 93 95 93 90 85 90 93 87 96 92 87 86 94 98 100 100 100 100 100 100 100 100 96 94

GFSCGP_925_rhum_030.txt.gz
RH
28 33 34 29 22 18 21 20 19 16 15 31 34 37 59 55 56 61 66 66 66 64 59 59 60 63 68 71 73 74 76 71 70 72 75 73 74 72 72 62 58 58 59 63
27 31 28 24 22 20 19 20 21 16 15 25 27 33 56 57 57 57 62 64 64 61 61 60 59 59 64 68 70 71 68 70 68 66 66 72 65 66 70 63 61 60 60 64
24 25 24 23 24 24 23 23 20 18 14 22 35 40 46 56 51 51 56 56 57 59 62 62 60 58 59 65 70 71 66 69 67 67 72 76 72 70 72 68 63 63 63 61
22 18 21 25 25 22 30 19 16 15 17 21 29 41 45 50 59 52 50 56 56 56 56 58 57 58 56 61 64 67 70 72 69 68 74 76 75 79 75 68 63 62 62 61
21 19 19 22 21 20 22 15 16 15 17 18 22 34 38 46 65 58 52 49 47 47 50 54 51 52 55 56 62 66 67 68 68 69 69 71 74 72 68 67 64 60 60 62
17 15 15 16 15 18 17 15 18 23 25 28 21 29 28 58 46 53 49 48 47 45 43 45 43 46 49 53 60 65 71 72 70 71 70 71 73 72 70 65 63 64 67 65
18 16 14 14 16 17 17 23 32 28 28 27 21 26 18 30 38 40 43 43 44 43 43 43 45 47 50 55 58 64 71 74 72 70 70 71 69 68 67 62 58 58 64 67
24 26 17 16 15 18 22 23 38 34 32 25 24 25 21 15 29 30 30 32 33 38 39 41 42 42 47 53 58 64 70 74 74 74 72 70 69 70 67 65 59 57 55 56
27 24 17 13 15 13 22 23 19 22 23 24 25 22 15 17 20 31 29 28 29 29 34 38 39 39 40 47 54 64 69 73 74 75 74 74 72 73 73 69 62 58 58 58
19 26 20 14 13 15 16 17 22 27 27 28 24 19 22 26 21 23 34 31 27 26 29 32 35 36 38 40 49 57 64 69 71 73 75 75 74 70 72 71 66 61 59 62
39 20 17 21 21 17 19 18 19 20 27 27 28 21 19 18 24 17 20 30 28 28 27 27 31 32 35 36 45 53 61 66 69 79 79 77 78 77 77 75 66 60 60 63
56 33 26 20 14 15 14 16 18 22 23 23 24 18 11 13 16 22 21 25 32 31 30 28 29 30 33 36 39 51 58 62 66 73 79 79 76 77 79 76 69 60 61 63
54 49 31 19 17 14 18 18 16 14 22 20 20 18 9 12 14 14 19 22 27 37 37 34 31 31 33 35 38 46 53 58 62 68 77 79 78 81 80 75 73 65 61 62
52 59 45 41 34 34 28 17 18 18 19 18 17 16 13 12 14 14 21 26 28 36 38 39 35 31 32 34 38 44 50 54 59 62 72 75 78 78 76 75 74 68 62 63
57 56 51 45 45 39 34 30 26 21 18 20 16 17 17 14 17 16 15 25 20 28 34 42 39 36 38 38 40 43 50 55 59 62 67 72 74 74 76 79 76 75 69 64
63 58 59 57 39 36 38 30 24 22 19 20 17 18 14 14 17 16 17 18 20 21 24 33 41 38 40 39 43 44 53 58 61 63 67 68 73 75 76 78 77 78 75 76
65 68 65 62 48 44 38 23 23 21 17 16 19 17 13 14 16 15 14 15 17 17 27 33 38 37 35 34 38 43 52 58 64 65 67 71 74 78 79 82 82 81 82 80
67 73 70 73 56 52 26 27 23 17 15 17 16 15 16 14 13 13 13 12 15 18 23 33 30 32 31 30 32 38 47 58 66 67 69 75 77 79 80 85 87 85 85 86
58 67 70 67 70 40 32 49 65 76 52 21 16 16 17 15 16 16 19 19 17 19 27 31 31 30 32 30 30 36 47 57 69 70 71 76 80 81 82 87 88 88 89 89
56 50 56 74 69 61 38 69 65 72 78 53 48 17 15 21 20 17 18 30 25 26 29 34 30 32 32 32 32 39 50 59 69 72 73 75 79 80 83 84 86 89 91 92
81 74 74 63 70 60 45 76 74 54 44 86 89 90 28 20 14 15 27 35 28 28 26 32 31 50 47 38 40 47 49 59 60 68 73 76 80 81 80 84 84 86 92 95
84 90 93 78 82 63 60 66 73 77 87 85 88 92 82 29 32 39 47 56 60 79 87 74 77 78 39 43 46 53 58 52 56 65 72 76 79 82 83 85 88 88 94 96
80 78 86 61 57 59 78 84 82 86 84 84 87 92 87 53 71 82 95 98 99 99 99 98 98 97 99 61 50 53 59 50 51 56 67 73 78 83 82 88 92 96 98 93
74 67 76 75 61 71 80 83 83 85 82 80 86 93 94 96 98 99 98 98 96 96 98 97 92 93 96 93 86 85 76 61 54 51 56 65 74 80 85 86 91 90 94 91
80 81 78 81 62 85 87 83 86 85 80 84 80 85 92 94 98 96 98 98 97 94 93 90 88 85 80 58 58 63 72 77 79 66 59 61 63 71 82 85 91 94 92 92
80 77 89 79 67 80 90 91 85 86 87 90 88 88 88 89 94 93 98 98 93 89 85 91 95 96 96 84 76 69 68 61 70 99 87 64 67 76 94 100 99 99 96 94

GFSCGP_925_rhum_033.txt.gz
RH
21 21 23 19 17 14 13 13 15 15 13 22 21 22 28 42 43 47 51 50 51 50 47 52 57 61 65 71 77 83 88 88 89 86 82 76 69 70 75 77 68 66 62 63
26 23 16 16 19 17 14 14 15 15 13 15 16 22 25 40 44 44 49 50 49 47 47 51 54 58 63 69 75 82 85 88 85 82 78 70 69 68 74 79 67 61 59 61
17 15 14 19 21 20 18 13 13 14 13 15 19 17 26 36 39 41 44 43 47 45 48 50 53 55 59 65 75 80 83 84 83 80 83 84 82 82 81 80 77 68 61 60
14 13 17 19 19 19 17 14 12 14 16 18 17 21 27 26 43 44 43 46 44 44 45 47 50 55 55 62 70 74 79 82 83 79 79 80 68 64 66 70 75 74 62 61
17 17 20 22 17 18 16 14 14 12 15 16 16 21 17 33 39 42 41 41 43 41 43 46 48 52 54 57 65 72 76 78 79 82 77 78 75 67 66 72 77 68 68 61
12 13 15 18 17 17 15 17 16 17 15 22 18 18 18 19 25 29 36 37 41 41 40 43 47 51 53 55 59 66 78 81 80 80 81 80 76 72 70 77 74 72 72 75
16 15 14 13 18 17 16 16 20 22 21 20 15 20 19 15 18 15 26 35 36 38 40 41 45 48 53 55 59 63 73 80 81 80 82 82 79 78 75 75 73 69 72 73
20 22 14 13 15 16 18 15 15 20 16 14 18 20 16 13 12 17 17 22 31 36 35 37 40 45 50 53 59 62 68 76 80 80 80 79 78 76 75 74 68 69 68 69
17 16 13 13 11 13 17 19 12 13 18 16 12 13 13 14 13 15 19 20 26 30 33 36 38 40 45 49 54 61 65 73 77 78 79 81 80 79 73 72 74 70 71 68
19 21 14 13 11 11 14 13 18 16 19 19 15 18 13 18 14 15 18 18 21 23 28 31 35 38 40 45 51 58 63 68 72 75 78 78 78 77 74 76 76 71 70 68
27 20 19 15 16 15 15 17 14 13 14 13 13 10 14 16 21 17 14 15 17 21 24 25 30 34 39 41 46 53 60 64 71 74 74 76 79 79 80 78 77 74 69 65
40 21 21 19 13 11 12 14 15 16 23 16 12 10 11 12 12 17 14 15 16 19 23 24 24 28 32 39 41 49 55 60 65 67 72 75 76 78 79 79 77 74 75 67
39 35 28 23 16 14 15 14 14 13 13 21 17 12 9 12 12 13 15 17 19 22 24 26 24 26 32 35 40 42 49 52 56 64 71 73 76 78 78 80 79 79 76 74
41 38 32 24 23 28 27 18 15 14 18 18 17 13 12 12 14 14 15 16 16 22 25 28 30 32 33 34 39 41 46 46 52 59 65 70 75 76 77 78 80 79 76 80
39 41 38 34 30 29 30 26 23 21 17 20 15 15 13 13 13 13 13 16 20 20 22 29 33 41 44 40 41 44 44 49 49 58 62 68 73 75 78 79 82 81 82 76
38 36 38 34 26 25 30 26 25 23 21 20 18 17 12 14 14 16 14 16 18 18 19 22 31 37 40 41 44 45 46 49 54 59 62 65 72 77 79 80 82 84 84 82
45 36 34 32 31 29 30 24 23 21 19 18 21 16 13 13 14 17 16 17 20 18 20 21 22 30 37 37 40 44 47 51 56 61 63 65 73 79 80 81 84 86 86 84
46 56 39 28 31 37 20 21 22 23 16 15 16 15 14 14 16 16 16 15 17 17 17 20 16 22 31 29 28 38 45 54 58 62 63 66 72 78 80 81 83 84 85 86
44 42 40 31 30 25 22 20 32 42 26 35 26 16 13 12 13 18 15 16 19 18 19 20 15 19 28 33 35 40 46 56 61 63 66 69 73 76 79 82 82 83 84 85
42 44 42 37 30 31 27 22 32 54 40 55 59 49 30 15 17 13 15 16 15 15 16 21 20 26 30 37 35 43 46 55 61 62 65 69 73 74 77 79 81 83 84 83
58 53 53 41 39 27 22 32 55 55 35 61 60 62 66 61 27 21 20 19 22 22 25 25 26 35 42 44 40 46 46 54 54 58 64 70 75 78 78 80 83 85 87 80
45 62 59 49 45 39 22 22 33 52 60 57 59 60 69 68 64 59 43 26 35 43 44 36 43 47 54 53 48 51 55 53 57 61 67 74 78 77 77 84 87 87 88 90
59 45 52 45 31 31 32 41 32 50 59 56 66 62 68 73 71 64 38 53 56 63 66 66 64 68 66 64 56 60 65 62 63 66 70 73 77 81 80 86 89 89 89 83
49 52 66 54 39 42 35 35 38 58 60 63 66 69 74 83 73 54 60 73 76 88 80 73 72 75 80 82 80 78 75 65 64 66 71 75 78 80 83 84 88 85 78 84
51 53 57 58 51 56 50 42 44 46 55 63 72 75 84 82 74 73 78 78 71 69 64 62 60 60 66 70 75 78 86 80 70 67 66 71 71 80 80 81 80 74 71 79
62 62 69 62 47 52 51 43 43 69 57 72 87 89 85 87 87 81 79 76 76 79 78 78 78 77 78 73 73 77 76 78 80 82 68 60 57 63 69 85 96 86 84 83